GW3465 Weather Reports


time (UTC)temp
F
wind
direction
speed
knots
gust
knots
rain 1hr
in
rain 24hr
in
rain mn
in
humidity
%
barometer
mb
20260505070358 68 223 2.6 3.5 0.00 0.00 0.00 72 1004.8
20260505065854 68 202 5.2 7.8 0.00 0.00 0.00 71 1004.9
20260505065351 68 233 3.5 5.2 0.00 0.00 0.00 71 1005.0
20260505064848 68 221 2.6 3.5 0.00 0.00 0.00 71 1005.2
20260505064345 68 232 1.7 3.5 0.00 0.00 0.00 71 1005.4
20260505063844 68 222 1.7 3.5 0.00 0.00 0.00 71 1005.4
20260505063339 69 229 0.9 2.6 0.00 0.00 0.00 70 1005.5
20260505062836 68 269 3.5 5.2 0.00 0.00 0.00 70 1005.3
20260505062333 69 176 0.0 6.1 0.00 0.00 0.00 70 1004.9
20260505061830 69 210 1.7 5.2 0.00 0.00 0.00 70 1005.2
20260505061328 69 257 3.5 5.2 0.00 0.00 0.00 70 1005.2
20260505060825 69 200 1.7 7.8 0.00 0.00 0.00 69 1005.2
20260505060322 69 182 0.9 7.0 0.00 0.00 0.00 70 1004.8
20260505055818 69 274 7.0 8.7 0.00 0.00 0.00 69 1004.7
20260505055314 69 248 4.3 7.0 0.00 0.00 0.00 69 1004.5
20260505054812 69 248 4.3 7.0 0.00 0.00 0.00 69 1004.5
20260505054309 69 243 11.3 13.0 0.00 0.00 0.00 69 1004.3
20260505053807 69 235 6.1 8.7 0.00 0.00 0.00 69 1004.5
20260505053303 69 209 6.1 8.7 0.00 0.00 0.00 69 1004.6
20260505052800 69 229 5.2 8.7 0.00 0.00 0.00 69 1004.5
20260505052257 69 220 4.3 7.8 0.00 0.00 0.00 69 1004.4
20260505051754 69 252 1.7 6.1 0.00 0.00 0.00 69 1004.4
20260505051252 69 279 4.3 7.0 0.00 0.00 0.00 68 1004.4
20260505050750 69 220 2.6 6.1 0.00 0.00 0.00 68 1004.4
20260505050248 69 217 3.5 7.0 0.00 0.00 0.00 68 1004.7
20260505041718 71 266 3.5 7.8 0.00 0.00 0.00 66 1005.5
20260505041215 71 267 3.5 8.7 0.00 0.00 0.00 65 1005.5
20260505040712 71 241 2.6 6.1 0.00 0.00 0.00 65 1005.5
20260505040209 71 248 2.6 6.1 0.00 0.00 0.00 65 1005.6
20260505035706 71 205 0.9 3.5 0.00 0.00 0.00 65 1005.8
20260505035202 71 263 2.6 6.1 0.00 0.00 0.00 64 1005.8
20260505034659 72 251 2.6 6.1 0.00 0.00 0.00 64 1006.0
20260505034156 72 271 4.3 5.2 0.00 0.00 0.00 64 1005.9
20260505033652 72 250 2.6 6.1 0.00 0.00 0.00 64 1005.7
20260505033151 72 190 0.0 6.1 0.00 0.00 0.00 64 1005.7
20260505032648 72 264 2.6 7.0 0.00 0.00 0.00 63 1005.6
20260505032139 72 257 4.3 7.8 0.00 0.00 0.00 63 1005.7
20260505031636 72 255 2.6 7.0 0.00 0.00 0.00 63 1005.7
20260505031132 72 211 2.6 6.1 0.00 0.00 0.00 63 1005.4
20260505030629 73 247 2.6 7.8 0.00 0.00 0.00 63 1005.7
20260505030125 73 223 1.7 7.8 0.00 0.00 0.00 63 1005.6
20260505025621 73 200 3.5 6.1 0.00 0.00 0.00 62 1005.5
20260505025120 73 316 3.5 5.2 0.00 0.00 0.00 62 1005.5
20260505024617 73 237 1.7 8.7 0.00 0.00 0.00 62 1005.2
20260505024114 73 272 3.5 8.7 0.00 0.00 0.00 61 1005.4
20260505023611 73 296 3.5 5.2 0.00 0.00 0.00 61 1005.0
20260505023109 73 165 3.5 7.0 0.00 0.00 0.00 61 1005.0
20260505022606 73 226 2.6 5.2 0.00 0.00 0.00 61 1005.1
20260505022103 73 280 0.9 8.7 0.00 0.00 0.00 61 1004.8
20260505021600 73 189 2.6 7.8 0.00 0.00 0.00 61 1004.8
20260505021057 73 202 4.3 6.1 0.00 0.00 0.00 61 1004.7
20260505020556 74 230 1.7 7.0 0.00 0.00 0.00 61 1004.5
20260505020054 74 251 8.7 11.3 0.00 0.00 0.00 60 1004.6
20260505015551 74 247 5.2 8.7 0.00 0.00 0.00 60 1004.8
20260505015047 74 212 2.6 7.8 0.00 0.00 0.00 60 1004.6
20260505014544 74 277 3.5 6.1 0.00 0.00 0.00 61 1004.3
20260505014041 74 271 3.5 12.2 0.00 0.00 0.00 60 1004.5
20260505013538 75 234 3.5 7.8 0.00 0.00 0.00 60 1004.4
20260505013036 75 275 5.2 6.1 0.00 0.00 0.00 60 1004.4
20260505012534 75 237 4.3 9.6 0.00 0.00 0.00 60 1004.1
20260505012030 75 251 3.5 7.0 0.00 0.00 0.00 60 1004.2
20260505011526 75 226 5.2 7.8 0.00 0.00 0.00 59 1004.1
20260505011023 75 247 7.8 11.3 0.00 0.00 0.00 59 1004.1
20260505010518 75 288 2.6 5.2 0.00 0.00 0.00 59 1004.2
20260505010016 76 234 3.5 5.2 0.00 0.00 0.00 59 1003.9
20260505005512 76 250 3.5 7.0 0.00 0.00 0.00 59 1003.8
20260505005010 76 216 4.3 8.7 0.00 0.00 0.00 58 1003.7
20260505004506 76 221 2.6 5.2 0.00 0.00 0.00 59 1003.7
20260505004003 76 237 1.7 5.2 0.00 0.00 0.00 58 1003.7
20260505003500 76 261 1.7 5.2 0.00 0.00 0.00 58 1003.7
20260505002956 77 232 3.5 7.0 0.00 0.00 0.00 57 1003.6
20260505002452 77 257 3.5 7.0 0.00 0.00 0.00 57 1003.3
20260505001951 77 247 5.2 8.7 0.00 0.00 0.00 57 1003.3
20260505001448 77 250 4.3 9.6 0.00 0.00 0.00 57 1003.5
20260505000945 77 231 0.9 9.6 0.00 0.00 0.00 57 1003.3
20260505000443 77 232 4.3 13.0 0.00 0.00 0.00 56 1003.6
20260504235940 77 259 4.3 7.0 0.00 0.00 0.00 57 1003.3
20260504235437 77 322 6.1 9.6 0.00 0.00 0.00 56 1003.3
20260504234933 77 229 4.3 8.7 0.00 0.00 0.00 56 1003.4
20260504234431 77 224 3.5 9.6 0.00 0.00 0.00 56 1003.4
20260504233927 78 283 6.1 11.3 0.00 0.00 0.00 55 1003.4
20260504233423 78 270 8.7 13.9 0.00 0.00 0.00 55 1003.3
20260504232920 78 270 9.6 13.9 0.00 0.00 0.00 55 1003.4
20260504232417 78 230 5.2 13.0 0.00 0.00 0.00 54 1003.5
20260504231914 78 238 5.2 13.0 0.00 0.00 0.00 53 1003.6
20260504231410 78 267 7.8 12.2 0.00 0.00 0.00 53 1003.7
20260504230907 79 259 6.1 11.3 0.00 0.00 0.00 53 1003.5
20260504230404 79 260 7.0 12.2 0.00 0.00 0.00 53 1003.7
20260504225903 80 268 5.2 7.0 0.00 0.00 0.00 52 1003.7
20260504225359 80 260 7.0 14.8 0.00 0.00 0.00 51 1003.5
20260504224856 80 281 4.3 8.7 0.00 0.00 0.00 51 1003.7
20260504224353 80 267 10.4 13.9 0.00 0.00 0.00 51 1003.7
20260504223850 80 285 9.6 16.5 0.00 0.00 0.00 51 1003.8
20260504223345 80 256 9.6 20.0 0.00 0.00 0.00 51 1003.6
20260504222842 80 241 7.0 8.7 0.00 0.00 0.00 51 1003.6
20260504222339 80 272 6.1 11.3 0.00 0.00 0.00 50 1003.8
20260504221837 80 273 3.5 8.7 0.00 0.00 0.00 50 1003.8
20260504221334 80 322 4.3 9.6 0.00 0.00 0.00 52 1003.7
20260504220831 80 263 3.5 7.8 0.00 0.00 0.00 51 1003.7
20260504220327 80 184 3.5 11.3 0.00 0.00 0.00 51 1003.7
20260504215825 80 214 7.0 15.6 0.00 0.00 0.00 51 1003.7
20260504215321 80 286 9.6 12.2 0.00 0.00 0.00 50 1003.8
20260504214817 80 262 6.1 15.6 0.00 0.00 0.00 49 1004.0
20260504214314 80 218 6.1 12.2 0.00 0.00 0.00 50 1003.8
20260504213811 80 265 7.0 18.2 0.00 0.00 0.00 50 1004.0
20260504213307 80 239 10.4 13.9 0.00 0.00 0.00 51 1004.1
20260504212804 80 302 8.7 18.2 0.00 0.00 0.00 50 1004.0
20260504212300 81 244 7.0 14.8 0.00 0.00 0.00 49 1004.1
20260504211758 80 287 8.7 13.9 0.00 0.00 0.00 49 1004.0
20260504211254 80 297 16.5 19.1 0.00 0.00 0.00 48 1004.0
20260504210752 81 271 16.5 22.6 0.00 0.00 0.00 48 1004.1
20260504210249 81 253 9.6 15.6 0.00 0.00 0.00 49 1004.2
20260504205746 80 220 7.0 8.7 0.00 0.00 0.00 49 1004.0
20260504205243 81 237 5.2 9.6 0.00 0.00 0.00 49 1004.4
20260504204741 80 203 8.7 13.9 0.00 0.00 0.00 50 1004.0
20260504204239 80 253 11.3 15.6 0.00 0.00 0.00 49 1004.3
20260504203738 80 259 11.3 18.2 0.00 0.00 0.00 49 1004.4
20260504203235 80 248 9.6 16.5 0.00 0.00 0.00 49 1004.4
20260504202735 80 250 4.3 15.6 0.00 0.00 0.00 49 1004.5
20260504202233 80 243 6.1 16.5 0.00 0.00 0.00 49 1004.5
20260504201730 80 325 6.1 9.6 0.00 0.00 0.00 50 1004.7
20260504201227 80 305 5.2 13.0 0.00 0.00 0.00 50 1004.7
20260504200725 80 247 3.5 12.2 0.00 0.00 0.00 49 1004.4
20260504200220 80 240 8.7 13.0 0.00 0.00 0.00 51 1004.7
20260504195717 79 242 9.6 16.5 0.00 0.00 0.00 50 1004.9
20260504195213 79 264 10.4 19.1 0.00 0.00 0.00 49 1005.0
20260504194710 80 290 14.8 16.5 0.00 0.00 0.00 50 1005.0
20260504194206 80 247 6.1 13.9 0.00 0.00 0.00 49 1004.9
20260504193703 80 242 7.0 13.9 0.00 0.00 0.00 50 1004.9
20260504193200 79 266 4.3 13.9 0.00 0.00 0.00 51 1004.8
20260504192659 79 329 10.4 19.1 0.00 0.00 0.00 51 1005.0
20260504192156 79 321 8.7 20.9 0.00 0.00 0.00 49 1004.9
20260504191655 79 256 8.7 14.8 0.00 0.00 0.00 50 1005.2
20260504191150 79 270 8.7 15.6 0.00 0.00 0.00 51 1005.0
20260504190646 79 319 5.2 13.9 0.00 0.00 0.00 51 1005.0
20260504190143 78 265 11.3 18.2 0.00 0.00 0.00 51 1005.1
20260504185639 79 294 9.6 14.8 0.00 0.00 0.00 51 1005.2
20260504185136 78 246 9.6 13.9 0.00 0.00 0.00 51 1005.2
20260504184632 78 258 9.6 20.0 0.00 0.00 0.00 51 1005.2
20260504184127 78 210 10.4 13.9 0.00 0.00 0.00 51 1005.1
20260504183625 78 249 13.0 16.5 0.00 0.00 0.00 50 1005.3
20260504183122 78 255 7.8 13.0 0.00 0.00 0.00 50 1005.0
20260504182620 78 262 9.6 15.6 0.00 0.00 0.00 52 1004.9
20260504182117 78 322 9.6 18.2 0.00 0.00 0.00 52 1005.2
20260504181614 78 230 3.5 11.3 0.00 0.00 0.00 53 1005.2
20260504181112 78 295 4.3 8.7 0.00 0.00 0.00 53 1005.3
20260504180611 76 246 2.6 8.7 0.00 0.00 0.00 54 1005.3
20260504180109 75 236 7.8 12.2 0.00 0.00 0.00 54 1005.2
20260504175606 74 218 5.2 9.6 0.00 0.00 0.00 56 1005.1
20260504175103 74 239 6.1 7.8 0.00 0.00 0.00 56 1005.1
20260504174601 74 221 5.2 7.0 0.00 0.00 0.00 56 1005.2
20260504174057 73 221 7.0 11.3 0.00 0.00 0.00 56 1005.3
20260504173554 73 223 6.1 8.7 0.00 0.00 0.00 56 1005.7
20260504173052 74 325 3.5 11.3 0.00 0.00 0.00 56 1005.6
20260504172547 74 287 3.5 11.3 0.00 0.00 0.00 55 1005.7
20260504172044 74 281 5.2 12.2 0.00 0.00 0.00 54 1005.5
20260504171541 74 233 7.0 13.0 0.00 0.00 0.00 54 1005.6
20260504171038 74 299 5.2 14.8 0.00 0.00 0.00 54 1005.7
20260504170534 75 231 9.6 14.8 0.00 0.00 0.00 54 1005.7
20260504150912 72 265 10.4 19.1 0.00 0.00 0.00 53 1005.8
20260504150409 71 280 7.8 14.8 0.00 0.00 0.00 54 1005.8
20260504140835 70 287 14.8 18.2 0.00 0.00 0.00 55 1006.5
20260504140331 69 261 8.7 16.5 0.00 0.00 0.00 55 1006.7
20260504130800 66 228 4.3 14.8 0.00 0.00 0.00 59 1006.7
20260504130256 66 228 9.6 13.9 0.00 0.00 0.00 59 1006.7
20260504120220 64 258 4.3 8.7 0.00 0.00 0.00 61 1007.0
20260504110647 63 232 7.8 9.6 0.00 0.00 0.00 60 1007.2
20260504110143 64 244 7.0 9.6 0.00 0.00 0.00 60 1007.3
20260504100609 65 264 2.6 12.2 0.00 0.00 0.00 59 1007.6
20260504100108 64 260 5.2 7.8 0.00 0.00 0.00 59 1007.8
20260504082003 66 227 3.5 7.8 0.00 0.00 0.00 57 1008.0
20260504081500 66 287 9.6 13.9 0.00 0.00 0.00 56 1008.1
20260504080955 66 230 7.0 13.0 0.00 0.00 0.00 56 1008.1
20260504080452 66 204 6.1 13.9 0.00 0.00 0.00 57 1008.1